[[{"header":{"parameterUnit":"m.s-1","parameterCategory":1,"la1":30.2991,"la2":30.254,"lo1":-89.0895,"lo2":-89.0444,"dy":0.0017,"dx":0.0017,"nx":28,"ny":28,"refTime":"2025-08-07T21:00:00:Z","depth":0,"parameterNumber":2,"parameterNumberName":"U-component_of_WINDS"},"data":[0,0,0,0,0,0,0,0,0,0,0,0,0,0,0,0,0,0,0,0,0,0,0,0,0,0,0,0,0,0,0,0,0,0,0,0,0,0,0,0,0,0,0,0,0,0,0,0,0,0,0,0,0,0,0,0,0,0,-4.6748,-4.675,0,-4.6857,-4.6858,-4.6859,-4.6785,-4.6782,-4.6778,-4.6775,-4.6887,-4.6893,-4.6899,0,0,0,0,0,0,0,0,0,0,0,0,0,-4.6477,-4.6482,-4.6748,-4.675,-4.6751,-4.6857,-4.6858,-4.686,-4.6786,-4.6782,-4.6778,-4.6774,-4.6885,-4.6892,-4.6899,0,0,0,0,0,0,0,0,0,0,0,0,0,-4.6591,-4.6484,-4.6748,-4.6727,-4.6726,-4.6856,-4.6858,-4.686,-4.6787,-4.6782,-4.6777,-4.6772,-4.6882,-4.6891,-4.69,-4.7057,0,0,-4.6928,-4.6932,0,0,0,0,0,0,0,0,-4.6585,-4.6601,-4.6729,-4.6729,-4.6728,-4.6802,-4.6803,-4.6926,-4.6788,-4.6764,-4.6775,-4.6769,-4.6863,-4.6873,-4.6905,-4.7063,-4.7067,-4.6929,-4.6935,-4.6939,-4.6941,0,0,0,0,0,0,0,-4.6577,-4.6596,-4.6791,-4.6731,-4.673,-4.6712,-4.6723,-4.6826,-4.684,-4.6765,-4.676,-4.6774,-4.6862,-4.6896,-4.6907,-4.7069,-4.6929,-4.6937,-4.6943,-4.6946,-4.7359,-4.7365,0,0,0,0,0,0,-4.6571,-4.659,-4.6788,-4.6794,-4.6643,-4.6721,-4.6733,-4.6784,-4.6839,-4.6842,-4.6778,-4.677,-4.6883,-4.6896,-4.691,-4.7096,-4.6938,-4.6947,-4.6952,-4.7354,-4.7361,-4.7367,0,0,0,0,0,0,-4.6565,-4.6589,-4.6783,-4.6691,-4.6714,-4.6731,-4.6789,-4.6788,-4.6822,-4.6849,-4.6851,-4.6811,-4.6879,-4.6897,-4.7021,-4.7099,-4.6951,-4.6959,-4.7348,-4.7356,-4.7364,-4.7469,0,0,0,0,0,0,-4.6558,-4.6588,-4.6648,-4.6693,-4.672,-4.6893,-4.6793,-4.6794,-4.6838,-4.6829,-4.688,-4.6883,-4.6877,-4.7008,-4.703,-4.7109,-4.6967,-4.7341,-4.7351,-4.7361,-4.7459,-4.748,-4.7498,0,0,0,0,0,-4.6549,-4.6674,-4.6651,-4.6675,-4.6795,-4.6897,-4.6912,-4.6902,-4.6845,-4.6905,-4.6922,-4.6882,-4.7087,-4.7021,-4.7045,-4.7128,-4.7336,-4.7348,-4.736,-4.745,-4.7476,-4.7498,0,0,0,0,0,0,-4.6638,-4.6679,-4.6655,-4.6798,-4.6845,-4.6884,-4.696,-4.693,-4.6994,-4.6983,-4.6968,-4.698,-4.7109,-4.7131,-4.7056,-4.7282,-4.7202,-4.722,-4.7262,-4.7287,-4.7306,-4.7297,-4.6974,0,0,0,0,0,-4.6674,-4.6754,-4.6786,-4.6909,-4.6934,-4.6943,-4.6988,-4.6976,-4.7023,-4.7043,-4.7068,-4.7116,-4.7191,-4.7241,-4.7312,-4.7463,-4.7472,-4.7532,-4.7551,-4.7567,-4.7582,-4.7662,-4.7688,-4.7407,-4.7407,-4.7407,0,0,-4.675,-4.6782,-4.6834,-4.6928,-4.6962,-4.7045,-4.696,-4.7051,-4.7112,-4.7056,-4.7173,-4.7195,-4.7247,-4.7384,-4.7446,-4.7407,-4.7662,-4.7583,-4.7596,-4.7602,-4.7677,-4.7704,-4.7727,-4.7416,-4.7414,-4.7413,0,0,-4.6929,-4.6963,-4.7068,-4.7104,-4.7158,-4.7163,-4.7189,-4.7233,-4.7244,-4.7362,-4.7322,-4.7394,-4.7524,-4.7562,-4.7599,-4.7793,-4.7758,-4.7817,-4.7919,-4.7997,-4.8019,-4.8038,-4.8105,-4.8129,-4.7832,-4.7832,-4.7833,0,-4.7016,-4.7138,-4.7126,-4.722,-4.7262,-4.7216,-4.7321,-4.7358,-4.7432,-4.7462,-4.7417,-4.7578,-4.7611,-4.7755,-4.7802,-4.7835,-4.7862,-4.781,-4.8017,-4.8036,-4.8054,-4.8117,-4.8143,-4.7839,-4.7838,-4.7838,-4.7837,0,-4.7242,-4.7327,-4.7406,-4.7477,-4.7529,-4.7629,-4.7631,-4.7685,-4.7669,-4.7679,-4.7799,-4.7836,-4.7912,-4.7946,-4.7933,-4.8089,-4.8063,-4.8018,-4.7937,-4.8087,-4.8147,-4.8171,-4.7848,-4.7846,-4.7844,-4.7842,0,0,-4.7478,-4.7542,-4.7571,-4.7602,-4.7657,-4.7723,-4.7821,-4.7895,-4.794,-4.7993,-4.8073,-4.8185,-4.8143,-4.8185,-4.8175,-4.8244,-4.8392,-4.819,-4.8191,-4.8224,-4.8564,-4.8596,-4.8624,-4.837,-4.8375,-4.8379,-4.8559,0,-4.7659,-4.7827,-4.7819,-4.7977,-4.8054,-4.8012,-4.8097,-4.814,-4.8152,-4.822,-4.8234,-4.8312,-4.8252,-4.8277,-4.8343,-4.836,-4.846,-4.8347,-4.8443,-4.8447,-4.8428,-4.8656,-4.8689,-4.8858,-4.8583,-4.8587,-4.8589,0,-4.7891,-4.795,-4.8116,-4.8158,-4.8191,-4.8267,-4.8333,-4.8399,-4.8447,-4.8451,-4.8498,-4.8477,-4.8575,-4.8493,-4.8627,-4.8551,-4.859,-4.8604,-4.8611,-4.8617,-4.8525,-4.8665,-4.8912,-4.8936,-4.8626,-4.8623,-4.8621,0,-4.8043,-4.8166,-4.8279,-4.8308,-4.8361,-4.8415,-4.844,-4.8483,-4.8528,-4.8587,-4.8616,-4.8686,-4.8724,-4.8779,-4.8777,-4.8718,-4.8912,-4.8831,-4.8917,-4.8917,-4.8957,-4.8954,-4.921,-4.8987,-4.8987,-4.8986,-4.8986,0,-4.8244,-4.8346,-4.8348,-4.8418,-4.8531,-4.8521,-4.8634,-4.8653,-4.8691,-4.8764,-4.8733,-4.8802,-4.8796,-4.8866,-4.8866,-4.8975,-4.8994,-4.8999,-4.8997,-4.9,-4.8999,-4.9023,-4.901,-4.8993,-4.8992,-4.899,-4.8989,0,-4.8432,-4.8438,-4.8559,-4.86,-4.8612,-4.8693,-4.8728,-4.8794,-4.8804,-4.8896,-4.8917,-4.8933,-4.9013,-4.9017,-4.911,-4.911,-4.9242,-4.9229,-4.9226,-4.9222,-4.9307,-4.9298,-4.9585,-4.9622,-4.9378,-4.938,-4.9382,0,-4.8558,-4.8635,-4.8684,-4.873,-4.8757,-4.8832,-4.8878,-4.8871,-4.892,-4.898,-4.9039,-4.9116,-4.9177,-4.9307,-4.9327,-4.9397,-4.9384,-4.948,-4.9394,-4.9394,-4.9382,-4.9376,-4.9383,-4.9496,-4.9498,-4.9501,-4.9502,0,-4.878,-4.8779,-4.8845,-4.8913,-4.8968,-4.9021,-4.907,-4.911,-4.9109,-4.9165,-4.9246,-4.9294,-4.9388,-4.9465,-4.9534,-4.9559,-4.9531,-4.953,-4.9553,-4.9555,-4.9549,-4.9551,-4.9268,-4.9522,-4.952,-4.9519,-4.9518,-4.9517,-4.8939,-4.9005,-4.9049,-4.9123,-4.916,-4.9206,-4.927,-4.9287,-4.9355,-4.943,-4.9423,-4.9513,-4.9558,-4.9647,-4.9679,-4.9749,-4.9716,-4.975,-4.9758,-4.9766,-4.9773,-4.954,-4.9762,-4.9761,-4.9761,-4.976,-4.976,0,-4.9157,-4.9183,-4.9252,-4.9321,-4.938,-4.9348,-4.9401,-4.9452,-4.9531,-4.9576,-4.9636,-4.9729,-4.9803,-4.9829,-4.9901,-4.9952,-4.9941,-4.9971,-4.9965,-4.9971,-4.98,-4.9771,-4.9979,-4.9979,-4.9978,-4.9978,-4.9978,-4.9978,-4.9277,-4.9386,-4.9391,-4.9517,-4.9543,-4.9629,-4.9662,-4.9705,-4.974,-4.9845,-4.9906,-4.9922,-4.9959,-5.0033,-5.0099,-5.0105,-5.0132,-5.0167,-5.0167,-5.0006,-4.9984,-4.9963,-4.9936,-5.0174,-5.0174,-5.0332,-5.0334,-5.0335]},{"header":{"parameterUnit":"m.s-1","parameterCategory":1,"la1":30.2991,"la2":30.254,"lo1":-89.0895,"lo2":-89.0444,"dy":0.0017,"dx":0.0017,"nx":28,"ny":28,"refTime":"2025-08-07T21:00:00:Z","depth":0,"parameterNumber":3,"parameterNumberName":"V-component_of_WINDS"},"data":[0,0,0,0,0,0,0,0,0,0,0,0,0,0,0,0,0,0,0,0,0,0,0,0,0,0,0,0,0,0,0,0,0,0,0,0,0,0,0,0,0,0,0,0,0,0,0,0,0,0,0,0,0,0,0,0,0,0,1.4402,1.4402,0,1.4405,1.4405,1.4405,1.4384,1.4384,1.4383,1.4383,1.4385,1.4385,1.4386,0,0,0,0,0,0,0,0,0,0,0,0,0,1.4379,1.4379,1.4402,1.4402,1.4402,1.4405,1.4405,1.4405,1.4384,1.4384,1.4383,1.4382,1.4385,1.4385,1.4386,0,0,0,0,0,0,0,0,0,0,0,0,0,1.4386,1.438,1.4402,1.4392,1.4391,1.4405,1.4405,1.4405,1.4385,1.4384,1.4383,1.4382,1.4384,1.4385,1.4386,1.4408,0,0,1.4389,1.4389,0,0,0,0,0,0,0,0,1.4386,1.4387,1.4394,1.4393,1.4392,1.4393,1.4397,1.4406,1.4385,1.4387,1.4383,1.4382,1.4388,1.4389,1.4391,1.4408,1.4409,1.4389,1.4389,1.439,1.439,0,0,0,0,0,0,0,1.4385,1.4387,1.4403,1.4394,1.4393,1.4388,1.4388,1.4399,1.4392,1.4387,1.4385,1.4386,1.4388,1.439,1.4391,1.4409,1.4389,1.4389,1.439,1.439,1.4445,1.4446,0,0,0,0,0,0,1.4386,1.4386,1.4403,1.4403,1.4387,1.4389,1.4389,1.4394,1.4392,1.4391,1.4387,1.4385,1.4389,1.439,1.4391,1.4417,1.439,1.439,1.4391,1.4444,1.4445,1.4446,0,0,0,0,0,0,1.4386,1.4388,1.4403,1.4394,1.4396,1.439,1.4396,1.4394,1.4397,1.4392,1.4391,1.4391,1.4389,1.439,1.4404,1.4417,1.4391,1.4392,1.4443,1.4444,1.4446,1.4469,0,0,0,0,0,0,1.4385,1.4388,1.4396,1.4395,1.4396,1.4416,1.4396,1.4395,1.4398,1.4396,1.4395,1.4394,1.4388,1.4403,1.4405,1.4417,1.4392,1.4442,1.4444,1.4445,1.4467,1.4471,1.4475,0,0,0,0,0,1.4384,1.4402,1.4396,1.4399,1.4407,1.4417,1.4418,1.441,1.44,1.4408,1.4405,1.4394,1.4415,1.4405,1.4407,1.442,1.4441,1.4443,1.4445,1.4466,1.447,1.4475,0,0,0,0,0,0,1.4404,1.4402,1.4395,1.4413,1.4416,1.4413,1.4423,1.4415,1.442,1.4418,1.4408,1.4408,1.4424,1.4424,1.4412,1.4442,1.4426,1.4429,1.4441,1.4446,1.4449,1.4449,1.4393,0,0,0,0,0,1.4411,1.442,1.4417,1.4433,1.4435,1.4429,1.4433,1.4427,1.4429,1.443,1.4428,1.443,1.4437,1.4441,1.4448,1.4468,1.4467,1.4478,1.4481,1.4484,1.4486,1.4497,1.4501,1.4453,1.4453,1.4453,0,0,1.4424,1.4424,1.443,1.4437,1.4438,1.4447,1.443,1.444,1.4446,1.4431,1.4445,1.4444,1.4445,1.4463,1.447,1.4463,1.45,1.4487,1.4489,1.449,1.45,1.4504,1.4508,1.4455,1.4454,1.4454,0,0,1.4453,1.4454,1.4468,1.447,1.4472,1.4468,1.4472,1.4471,1.447,1.4484,1.4472,1.448,1.4493,1.4494,1.4497,1.4528,1.4518,1.4531,1.4549,1.456,1.4563,1.4567,1.4577,1.4581,1.4533,1.4533,1.4533,0,1.4469,1.4483,1.4476,1.4487,1.449,1.4478,1.4492,1.4494,1.4498,1.45,1.4492,1.4507,1.4508,1.4525,1.4533,1.4536,1.4539,1.453,1.4564,1.4567,1.457,1.458,1.4584,1.4534,1.4534,1.4534,1.4534,0,1.4503,1.4512,1.4523,1.4528,1.4533,1.4545,1.454,1.4546,1.454,1.4538,1.4552,1.4552,1.4558,1.4562,1.4557,1.458,1.4575,1.4565,1.4549,1.4576,1.4585,1.4589,1.4536,1.4536,1.4535,1.4535,0,0,1.4542,1.4544,1.4548,1.455,1.4553,1.456,1.4572,1.4579,1.4584,1.4588,1.4597,1.4609,1.46,1.4603,1.4598,1.4607,1.4632,1.4596,1.4596,1.4602,1.4657,1.4663,1.4668,1.4626,1.4627,1.4627,1.4656,0,1.457,1.4591,1.4586,1.4606,1.4615,1.4604,1.4615,1.4618,1.4616,1.4623,1.4622,1.463,1.4618,1.462,1.4629,1.4627,1.4642,1.4625,1.4634,1.4635,1.4633,1.4673,1.4679,1.4707,1.466,1.4661,1.4661,0,1.4604,1.461,1.4632,1.4634,1.4637,1.4647,1.4653,1.466,1.4663,1.4662,1.4666,1.4659,1.4671,1.4656,1.4673,1.4661,1.4665,1.4665,1.4666,1.4665,1.4649,1.4672,1.4715,1.4719,1.4667,1.4666,1.4666,0,1.4631,1.4644,1.4659,1.4661,1.4664,1.4671,1.4672,1.4674,1.4679,1.4684,1.4687,1.4694,1.4697,1.4703,1.4698,1.4688,1.4715,1.47,1.4713,1.4713,1.4718,1.4718,1.4761,1.4723,1.4723,1.4723,1.4723,0,1.4661,1.4675,1.4671,1.468,1.4695,1.4689,1.4704,1.4704,1.4707,1.4715,1.4707,1.4715,1.4709,1.4717,1.4713,1.4727,1.4729,1.4728,1.4726,1.4728,1.4728,1.4729,1.4727,1.4724,1.4723,1.4723,1.4723,0,1.4692,1.469,1.4705,1.4707,1.4708,1.4719,1.472,1.4728,1.4727,1.4738,1.4741,1.4738,1.4747,1.4743,1.4752,1.475,1.4768,1.4765,1.4767,1.4766,1.4779,1.4777,1.4824,1.4829,1.4788,1.4789,1.4789,0,1.4711,1.4722,1.4725,1.4731,1.4733,1.4742,1.4747,1.4742,1.4747,1.4752,1.476,1.4769,1.4775,1.479,1.4789,1.4796,1.4792,1.4808,1.4793,1.4794,1.4791,1.479,1.4791,1.481,1.4811,1.4811,1.4812,0,1.4745,1.4744,1.4752,1.476,1.4766,1.4772,1.4777,1.4782,1.4777,1.4784,1.4793,1.4799,1.4809,1.4817,1.4824,1.4825,1.4817,1.4817,1.482,1.4821,1.4821,1.4821,1.4774,1.4815,1.4815,1.4814,1.4814,1.4814,1.477,1.4779,1.4783,1.4792,1.4796,1.4801,1.4809,1.4809,1.4817,1.4825,1.4822,1.4833,1.4837,1.4845,1.4847,1.4856,1.4849,1.4854,1.4855,1.4856,1.4858,1.4821,1.4857,1.4857,1.4857,1.4857,1.4856,0,1.4804,1.4806,1.4815,1.4822,1.483,1.4823,1.4829,1.4835,1.4845,1.4849,1.4856,1.4867,1.4876,1.4876,1.4883,1.489,1.4887,1.4892,1.4891,1.4891,1.4863,1.4859,1.4895,1.4895,1.4895,1.4895,1.4895,1.4895,1.4822,1.4836,1.4836,1.4853,1.4855,1.4866,1.4869,1.4874,1.4877,1.489,1.4898,1.4898,1.4901,1.4909,1.4916,1.4916,1.4919,1.4925,1.4924,1.4897,1.4893,1.489,1.4886,1.4926,1.4926,1.4951,1.4951,1.4951]}]]